Index of /watch_images/4965

[ICO]NameLast modifiedSizeDescription

[PARENTDIR]Parent Directory  -  
[IMG]49645007-clownft160_medium.jpg2016-09-30 08:42 160K 
[IMG]49645009-concept-businessft160_medium.jpg2016-09-30 08:42 136K 
[IMG]49645025-little-girl-in-fairy-costume-on-a-whiteft160_medium.jpg2016-09-30 08:42 138K 
[IMG]49645026-little-girl-in-fairy-costume-on-a-whiteft160_medium.jpg2016-09-30 08:44 140K 
[IMG]49645031-coeur-et-noeud-de-cadeauft160_medium.jpg2016-09-30 08:41 148K 
[IMG]49645041-colourful-design-with-round-shapesft160_medium.jpg2016-09-30 08:45 132K 
[IMG]49645043-architecteft160_medium.jpg2016-09-30 08:42 132K 
[IMG]49645044-lappen-ift160_medium.jpg2016-09-30 08:39 125K 
[IMG]49645047-lappen-iift160_medium.jpg2016-09-30 08:41 130K 
[IMG]49645062-eine-tuete-voll-popcornft160_medium.jpg2016-09-30 08:42 152K 
[IMG]49645080-architecteft160_medium.jpg2016-09-30 08:42 144K 
[IMG]49645083-anonymousft160_medium.jpg2016-09-30 08:41 128K 
[IMG]49645087-wicker-basket-with-fruitsft160_medium.jpg2016-09-30 08:39 187K 
[IMG]49645095-religioeses-stilllebenft160_medium.jpg2016-09-30 08:40 181K 
[IMG]49645096-piccolo-insetto-sulla-fogliaft160_medium.jpg2016-09-30 08:43 156K 
[IMG]49645101-abstract-room-bright-ceramic-wall-backgroundft160_medium.jpg2016-09-30 08:44 280K 
[IMG]49645106--bell-peppers-on-a-white-backgroundft160_medium.jpg2016-09-30 08:43 140K 
[IMG]49645111-stm-2706-xeft160_medium.jpg2016-09-30 08:43 203K 
[IMG]49645112-background-or-template-for-black-modern-business-cardft160_medium.jpg2016-09-30 08:40 136K 
[IMG]49645117-ecologyft160_medium.jpg2016-09-30 08:41 181K 
[IMG]49645118-buddha-mit-ohm-zeichenft160_medium.jpg2016-09-30 08:42 156K 
[IMG]49645122-green-banner-banner-design-header-for-webft160_medium.jpg2016-09-30 08:41 157K 
[IMG]49645125-letdownft160_medium.jpg2016-09-30 08:39 120K 
[IMG]49645135-worker-circular-saw-scie-circulaire-19th-centuryft160_medium.jpg2016-09-30 08:42 148K 
[IMG]49645142--bell-peppers-on-a-white-backgroundft160_medium.jpg2016-09-30 08:44 126K 
[IMG]49645145-background-or-template-for-cover-designft160_medium.jpg2016-09-30 08:40 179K 
[IMG]49645146-buddha-mit-paisley-muster-und-ohm-zeichenft160_medium.jpg2016-09-30 08:42 169K 
[IMG]49645149-fragment-sidewalkft160_medium.jpg2016-09-30 08:39 199K 
[IMG]49645152-vintage-old-bookft160_medium.jpg2016-09-30 08:42 140K 
[IMG]49645158-abundance-of-fruitft160_medium.jpg2016-09-30 08:40 156K 
[IMG]49645170-view-of-the-blue-mosque-in-sultanahmed-istanbulft160_medium.jpg2016-09-30 08:43 169K 
[IMG]49645174-meat-and-sausagesft160_medium.jpg2016-09-30 08:39 219K 
[IMG]49645177-boy-on-a-bikeft160_medium.jpg2016-09-30 08:44 203K 
[IMG]49645178-branch-of-grapeft160_medium.jpg2016-09-30 08:44 165K 
[IMG]49645182-branch-of-grapeft160_medium.jpg2016-09-30 08:41 125K 
[IMG]49645187-buddha-mit-sonne-und-paisley-hintergrundft160_medium.jpg2016-09-30 08:44 183K 
[IMG]49645191-brick-sidewalk-detailft160_medium.jpg2016-09-30 08:44 170K 
[IMG]49645195-view-of-the-blue-mosque-in-sultanahmed-istanbulft160_medium.jpg2016-09-30 08:41 133K 
[IMG]49645200-bottle-of-lager-beerft160_medium.jpg2016-09-30 08:39 111K 
[IMG]49645201-beer-being-poured-into-a-mug-from-a-bottleft160_medium.jpg2016-09-30 08:42 122K 
[IMG]49645202-dark-beer-being-poured-into-a-glassft160_medium.jpg2016-09-30 08:44 121K 
[IMG]49645210-woman-shows-the-communication-world-global-commerceft160_medium.jpg2016-09-30 08:42 150K 
[IMG]49645222-vintage-old-paperft160_medium.jpg2016-09-30 08:45 133K 
[IMG]49645247-limes-isoleted-over-dark-backgroundft160_medium.jpg2016-09-30 08:39 112K 
[IMG]49645256ft160_medium.jpg2016-09-30 08:41 207K 
[IMG]49645272-cooler-hase-macht-werbungft160_medium.jpg2016-09-30 08:41 145K 
[IMG]49645297-your-textft160_medium.jpg2016-09-30 08:39 103K 
[IMG]49645298-hinweisft160_medium.jpg2016-09-30 08:43 115K 
[IMG]49645302-cappuccinoft160_medium.jpg2016-09-30 08:43 147K 
[IMG]49645307-vintage-old-paperft160_medium.jpg2016-09-30 08:44 138K 
[IMG]49645309-heap-of-orange-green-and-yellow-lemonft160_medium.jpg2016-09-30 08:42 147K 
[IMG]49645311-klasik-otomobil-tornado-66ft160_medium.jpg2016-09-30 08:44 127K 
[IMG]49645312-klasik-araba-tornado-66ft160_medium.jpg2016-09-30 08:45 124K 
[IMG]49645314-otomobil-356-porscheft160_medium.jpg2016-09-30 08:44 135K 
[IMG]49645317-sultanahmedft160_medium.jpg2016-09-30 08:42 198K 
[IMG]49645321-white-arrow-on-surface-trafficft160_medium.jpg2016-09-30 08:43 172K 
[IMG]49645328-architecture-technicalft160_medium.jpg2016-09-30 08:39 177K 
[IMG]49645333-papier-altft160_medium.jpg2016-09-30 08:42 122K 
[IMG]49645339-fahrradreparaturft160_medium.jpg2016-09-30 08:42 146K 
[IMG]49645343-braune-einkaufstueteft160_medium.jpg2016-09-30 08:42 132K 
[IMG]49645350-the-painting-of-a-roseft160_medium.jpg2016-09-30 08:40 125K 
[IMG]49645351-molo-con-tempestaft160_medium.jpg2016-09-30 08:43 138K 
[IMG]49645360-pocket-with-zipper-of-fashionable-jeansft160_medium.jpg2016-09-30 08:39 172K 
[IMG]49645362-soft-tunes-grunge-swirl-backgroundft160_medium.jpg2016-09-30 08:40 154K 
[IMG]49645363-aquarium-fishft160_medium.jpg2016-09-30 08:41 180K 
[IMG]49645365-set-of-business-vintage-badges-and-labels-ft160_medium.jpg2016-09-30 08:41 216K 
[IMG]49645371-happy-young-couple-enjoying-summer-on-beachft160_medium.jpg2016-09-30 08:40 145K 
[IMG]49645373-familie-am-strandft160_medium.jpg2016-09-30 08:40 158K 
[IMG]49645375-buona-pasquaft160_medium.jpg2016-09-30 08:41 144K 
[IMG]49645379-heap-of-orange-green-and-yellow-lemonft160_medium.jpg2016-09-30 08:43 152K 
[IMG]49645403-aquarium-fishft160_medium.jpg2016-09-30 08:44 192K 
[IMG]49645412-wineft160_medium.jpg2016-09-30 08:44 136K 
[IMG]49645417-beautiful-girl-in-a-underwearft160_medium.jpg2016-09-30 08:41 136K 
[IMG]49645422-happy-young-familyft160_medium.jpg2016-09-30 08:43 168K 
[IMG]49645424-buona-pasquaft160_medium.jpg2016-09-30 08:41 138K 
[IMG]49645432-kritik-lob-tastatur-fingerft160_medium.jpg2016-09-30 08:43 166K 
[IMG]49645438-background-or-template-for-cover-designft160_medium.jpg2016-09-30 08:42 239K 
[IMG]49645445-background-or-template-for-cover-designft160_medium.jpg2016-09-30 08:40 136K 
[IMG]49645451-sultanahmedft160_medium.jpg2016-09-30 08:41 173K 
[IMG]49645464-construction-technical-detailsft160_medium.jpg2016-09-30 08:43 184K 
[IMG]49645488-acoustic-guitar-on-concrete-wallft160_medium.jpg2016-09-30 08:42 145K 
[IMG]49645491-junge-frau-in-haushaelterin-kostuemft160_medium.jpg2016-09-30 08:43 145K 
[IMG]49645495-attraktives-paar-im-feldft160_medium.jpg2016-09-30 08:41 157K 
[IMG]49645497-holzwand-mit-herzft160_medium.jpg2016-09-30 08:40 164K 
[IMG]49645500-reflexion-du-piton-des-neiges-sur-la-mare-a-scoriesft160_medium.jpg2016-09-30 08:43 182K 
[IMG]49645502-zwergkaninchenft160_medium.jpg2016-09-30 08:43 131K 
[IMG]49645505-massbandft160_medium.jpg2016-09-30 08:43 143K 
[IMG]49645512-zwergkaninchenft160_medium.jpg2016-09-30 08:42 126K 
[IMG]49645516-zwergkaninchenft160_medium.jpg2016-09-30 08:41 147K 
[IMG]49645519-osterhaseft160_medium.jpg2016-09-30 08:41 133K 
[IMG]49645520-junge-frau-in-haushaelterin-kostuemft160_medium.jpg2016-09-30 08:44 130K 
[IMG]49645523-girl-in-black-paint-on-dark-backgroundft160_medium.jpg2016-09-30 08:42 125K 
[IMG]49645524-fast-mountain-river-stonesft160_medium.jpg2016-09-30 08:39 165K 
[IMG]49645526-osterhaseft160_medium.jpg2016-09-30 08:40 127K 
[IMG]49645527-geschenkft160_medium.jpg2016-09-30 08:44 124K 
[IMG]49645530-osterhaseft160_medium.jpg2016-09-30 08:43 124K 
[IMG]49645535-herzenft160_medium.jpg2016-09-30 08:40 181K 
[IMG]49645536-herzenft160_medium.jpg2016-09-30 08:42 106K 
[IMG]49645537-hessenft160_medium.jpg2016-09-30 08:42 146K 
[IMG]49645539-gewinnft160_medium.jpg2016-09-30 08:43 189K 
[IMG]49645544-musicians-angelft160_medium.jpg2016-09-30 08:43 166K 
[IMG]49645545-bausparenft160_medium.jpg2016-09-30 08:39 138K 
[IMG]49645546-negative-bilanzft160_medium.jpg2016-09-30 08:44 184K 
[IMG]49645547-osterkarteft160_medium.jpg2016-09-30 08:40 122K 
[IMG]49645549-besteckft160_medium.jpg2016-09-30 08:42 123K 
[IMG]49645551-junge-frau-in-haushaelterin-kostuemft160_medium.jpg2016-09-30 08:41 140K 
[IMG]49645562-home-construction-technicalft160_medium.jpg2016-09-30 08:44 180K 
[IMG]49645565-floatingmarketft160_medium.jpg2016-09-30 08:43 234K 
[IMG]49645572-fashion-young-woman-sitting-on-the-grass-outdoorsft160_medium.jpg2016-09-30 08:43 184K 
[IMG]49645575-beautiful-smiling-woman-holding-her-little-puppy-isolated-on-whift160_medium.jpg2016-09-30 08:41 164K 
[IMG]49645590-blue-eyesft160_medium.jpg2016-09-30 08:40 129K 
[IMG]49645620-katzenbaby-putzt-sich-vektorft160_medium.jpg2016-09-30 08:44 137K 
[IMG]49645625-conference-meeting-microphones-on-white-backgroundft160_medium.jpg2016-09-30 08:41 152K 
[IMG]49645655-kiwift160_medium.jpg2016-09-30 08:44 140K 
[IMG]49645668-junge-frau-im-dirndl-lachtft160_medium.jpg2016-09-30 08:41 140K 
[IMG]49645670-condenser-microphone-in-recording-studioft160_medium.jpg2016-09-30 08:44 143K 
[IMG]49645673-ancient-philosopher-plato-in-athens-greeceft160_medium.jpg2016-09-30 08:39 161K 
[IMG]49645677-wallabyft160_medium.jpg2016-09-30 08:42 181K 
[IMG]49645687-condenser-microphone-in-vocal-recording-roomft160_medium.jpg2016-09-30 08:42 189K 
[IMG]49645698ft160_medium.jpg2016-09-30 08:44 122K 
[IMG]49645710-achat-groupeft160_medium.jpg2016-09-30 08:41 142K 
[IMG]49645713-workers-setft160_medium.jpg2016-09-30 08:43 175K 
[IMG]49645714ft160_medium.jpg2016-09-30 08:40 147K 
[IMG]49645715ft160_medium.jpg2016-09-30 08:40 149K 
[IMG]49645720-achat-groupeft160_medium.jpg2016-09-30 08:42 133K 
[IMG]49645724ft160_medium.jpg2016-09-30 08:45 143K 
[IMG]49645726-achat-groupeft160_medium.jpg2016-09-30 08:43 151K 
[IMG]49645733-holzwand-mit-herzft160_medium.jpg2016-09-30 08:43 170K 
[IMG]49645734ft160_medium.jpg2016-09-30 08:43 143K 
[IMG]49645738-maedchen-zeigt-etwasft160_medium.jpg2016-09-30 08:41 126K 
[IMG]49645744-top-view-of-colorful-easter-bouquet-with-golden-eggsft160_medium.jpg2016-09-30 08:43 204K 
[IMG]49645745ft160_medium.jpg2016-09-30 08:43 144K 
[IMG]49645755-das-eierfaerbenft160_medium.jpg2016-09-30 08:45 150K 
[IMG]49645756-stm-2735-xeft160_medium.jpg2016-09-30 08:40 180K 
[IMG]49645759ft160_medium.jpg2016-09-30 08:42 137K 
[IMG]49645760-light-blue-gingham-fabric-with-teddy-bears-backgroundft160_medium.jpg2016-09-30 08:41 183K 
[IMG]49645765ft160_medium.jpg2016-09-30 08:43 134K 
[IMG]49645767ft160_medium.jpg2016-09-30 08:43 125K 
[IMG]49645775-blank-vintage-post-card-backgroundft160_medium.jpg2016-09-30 08:39 160K 
[IMG]49645777ft160_medium.jpg2016-09-30 08:42 127K 
[IMG]49645780-nachdenkenft160_medium.jpg2016-09-30 08:39 143K 
[IMG]49645795-connect-diveceft160_medium.jpg2016-09-30 08:40 160K 
[IMG]49645797ft160_medium.jpg2016-09-30 08:40 128K 
[IMG]49645799-old-black-bible-book-with-golden-cross-on-whiteft160_medium.jpg2016-09-30 08:41 141K 
[IMG]49645801-calculator-and-diagramft160_medium.jpg2016-09-30 08:42 174K 
[IMG]49645804-architecture-en-boisft160_medium.jpg2016-09-30 08:44 162K 
[IMG]49645806ft160_medium.jpg2016-09-30 08:43 128K 
[IMG]49645818ft160_medium.jpg2016-09-30 08:40 126K 
[IMG]49645820-junge-frau-in-disko-tanzkleid-haelt-leeres-schildft160_medium.jpg2016-09-30 08:41 126K 
[IMG]49645821ft160_medium.jpg2016-09-30 08:41 126K 
[IMG]49645825-lustige-katze-spazierendft160_medium.jpg2016-09-30 08:39 146K 
[IMG]49645832-holzwand-mit-herzft160_medium.jpg2016-09-30 08:43 152K 
[IMG]49645834ft160_medium.jpg2016-09-30 08:39 125K 
[IMG]49645838-ananas-entierft160_medium.jpg2016-09-30 08:42 145K 
[IMG]49645842-gourmet-cakeft160_medium.jpg2016-09-30 08:41 165K 
[IMG]49645850-set-of-various-old-paper-sheetsft160_medium.jpg2016-09-30 08:43 173K 
[IMG]49645853ft160_medium.jpg2016-09-30 08:40 112K 
[IMG]49645858-thumb-upft160_medium.jpg2016-09-30 08:42 133K 
[IMG]49645859ft160_medium.jpg2016-09-30 08:44 117K 
[IMG]49645861-ohren-zuhaltenft160_medium.jpg2016-09-30 08:42 142K 
[IMG]49645864-frau-schuetzt-ihre-ohrenft160_medium.jpg2016-09-30 08:43 140K 
[IMG]49645865ft160_medium.jpg2016-09-30 08:39 120K 
[IMG]49645871ft160_medium.jpg2016-09-30 08:42 126K 
[IMG]49645876ft160_medium.jpg2016-09-30 08:40 123K 
[IMG]49645884ft160_medium.jpg2016-09-30 08:43 118K 
[IMG]49645887ft160_medium.jpg2016-09-30 08:42 117K 
[IMG]49645888-tulpenstraussft160_medium.jpg2016-09-30 08:44 181K 
[IMG]49645897ft160_medium.jpg2016-09-30 08:39 119K 
[IMG]49645904ft160_medium.jpg2016-09-30 08:41 120K 
[IMG]49645910-junge-frau-in-disko-tanzkleid-lachtft160_medium.jpg2016-09-30 08:44 143K 
[IMG]49645912ft160_medium.jpg2016-09-30 08:42 113K 
[IMG]49645913ft160_medium.jpg2016-09-30 08:43 111K 
[IMG]49645917ft160_medium.jpg2016-09-30 08:41 167K 
[IMG]49645918ft160_medium.jpg2016-09-30 08:43 121K 
[IMG]49645929ft160_medium.jpg2016-09-30 08:41 128K 
[IMG]49645934ft160_medium.jpg2016-09-30 08:43 119K 
[IMG]49645938ft160_medium.jpg2016-09-30 08:44 126K 
[IMG]49645947-empty-glassft160_medium.jpg2016-09-30 08:43 161K 
[IMG]49645962-abstract-page-design-layoutft160_medium.jpg2016-09-30 08:40 149K 
[IMG]49645963ft160_medium.jpg2016-09-30 08:43 125K 
[IMG]49645972-best-internet-concept-of-global-business-from-concepts-seriesft160_medium.jpg2016-09-30 08:44 175K 
[IMG]49645973-best-internet-concept-of-global-business-from-concepts-seriesft160_medium.jpg2016-09-30 08:43 176K 
[IMG]49645974-best-internet-concept-of-global-business-from-concepts-seriesft160_medium.jpg2016-09-30 08:41 138K 
[IMG]49645976-best-internet-concept-of-global-business-from-concepts-seriesft160_medium.jpg2016-09-30 08:45 162K 
[IMG]49645977-best-internet-concept-of-global-business-from-concepts-seriesft160_medium.jpg2016-09-30 08:42 167K 
[IMG]49646005-chessmen-of-black-color-on-checkered-boardft160_medium.jpg2016-09-30 08:41 183K 
[IMG]49646007-white-luxury-armchair-in-empty-light-roomft160_medium.jpg2016-09-30 08:41 116K 
[IMG]49646011ft160_medium.jpg2016-09-30 08:44 116K 
[IMG]49646018ft160_medium.jpg2016-09-30 08:40 115K 
[IMG]49646028ft160_medium.jpg2016-09-30 08:42 115K 
[IMG]49646030-lauernde-katze-vektorft160_medium.jpg2016-09-30 08:39 124K 
[IMG]49646037-empty-subway-station-with-the-lights-of-the-arriving-trainft160_medium.jpg2016-09-30 08:42 184K 
[IMG]49646039-riderft160_medium.jpg2016-09-30 08:41 160K 
[IMG]49646047-cheetah-face-closeupft160_medium.jpg2016-09-30 08:44 205K 
[IMG]49646053ft160_medium.jpg2016-09-30 08:44 127K 
[IMG]49646062ft160_medium.jpg2016-09-30 08:43 117K 
[IMG]49646067ft160_medium.jpg2016-09-30 08:43 124K 
[IMG]49646096-juicer-with-assortment-of-fruitsft160_medium.jpg2016-09-30 08:39 156K 
[IMG]49646106-happy-young-couple-enjoying-summer-on-beachft160_medium.jpg2016-09-30 08:40 154K 
[IMG]49646110ft160_medium.jpg2016-09-30 08:43 159K 
[IMG]49646115ft160_medium.jpg2016-09-30 08:42 175K 
[IMG]49646142-biscotti-per-canift160_medium.jpg2016-09-30 08:42 122K 
[IMG]49646170-juicer-with-assortment-of-fruitsft160_medium.jpg2016-09-30 08:43 172K 
[IMG]49646174-stm-2768-xeft160_medium.jpg2016-09-30 08:43 157K 
[IMG]49646186-nostalgisch-texturierte-ansicht-der-rialto-bruecke-in-venedigft160_medium.jpg2016-09-30 08:40 187K 
[IMG]49646210-gingerbread-house-with-clipping-pathft160_medium.jpg2016-09-30 08:41 142K 
[IMG]49646211-chamaeleo-calyptratusft160_medium.jpg2016-09-30 08:39 142K 
[IMG]49646225-copper-sulfateft160_medium.jpg2016-09-30 08:44 155K 
[IMG]49646227-copper-sulfateft160_medium.jpg2016-09-30 08:44 197K 
[IMG]49646228-agenda-ouvert-sur-deux-pages-blanchesft160_medium.jpg2016-09-30 08:44 133K 
[IMG]49646230-knight-with-brown-colorft160_medium.jpg2016-09-30 08:41 152K 
[IMG]49646232-marcoft160_medium.jpg2016-09-30 08:44 125K 
[IMG]49646243-katze-sitzt-stillft160_medium.jpg2016-09-30 08:42 112K 
[IMG]49646244-herrenschuhft160_medium.jpg2016-09-30 08:39 137K 
[IMG]49646246-beautiful-spiderft160_medium.jpg2016-09-30 08:43 157K 
[IMG]49646250-beautiful-spiderft160_medium.jpg2016-09-30 08:40 174K 
[IMG]49646251-fischstaebchenft160_medium.jpg2016-09-30 08:43 124K 
[IMG]49646253-gray-cityft160_medium.jpg2016-09-30 08:42 140K 
[IMG]49646289-snow-on-fir-branches-macroft160_medium.jpg2016-09-30 08:39 168K 
[IMG]49646293-business-woman-tired-at-office-corporateft160_medium.jpg2016-09-30 08:42 157K 
[IMG]49646301-brown-smokeft160_medium.jpg2016-09-30 08:40 190K 
[IMG]49646302-magenta-smokeft160_medium.jpg2016-09-30 08:43 184K 
[IMG]49646304-homemade-chocolate-cookiesft160_medium.jpg2016-09-30 08:44 148K 
[IMG]49646325-stm-2771-xeft160_medium.jpg2016-09-30 08:39 148K 
[IMG]49646332-3d-arrow-collapseft160_medium.jpg2016-09-30 08:42 133K 
[IMG]49646333-graupenft160_medium.jpg2016-09-30 08:43 132K 
[IMG]49646340-budapest-parliament-buildingft160_medium.jpg2016-09-30 08:43 215K 
[IMG]49646353ft160_medium.jpg2016-09-30 08:39 170K 
[IMG]49646358ft160_medium.jpg2016-09-30 08:43 158K 
[IMG]49646373-photos-polaroid-anciennesft160_medium.jpg2016-09-30 08:41 138K 
[IMG]49646375-steinbruchft160_medium.jpg2016-09-30 08:43 190K 
[IMG]49646380-organic-lettuceft160_medium.jpg2016-09-30 08:43 155K 
[IMG]49646385-beautyft160_medium.jpg2016-09-30 08:42 143K 
[IMG]49646396ft160_medium.jpg2016-09-30 08:39 236K 
[IMG]49646401-black-leather-beltft160_medium.jpg2016-09-30 08:40 144K 
[IMG]49646415-beschriftete-tafelft160_medium.jpg2016-09-30 08:39 133K 
[IMG]49646416-biscotti-per-canift160_medium.jpg2016-09-30 08:41 123K 
[IMG]49646417-katze-sitzend-vektorft160_medium.jpg2016-09-30 08:42 137K 
[IMG]49646419-crates-full-of-grapesft160_medium.jpg2016-09-30 08:43 212K 
[IMG]49646421-biscotti-per-canift160_medium.jpg2016-09-30 08:44 139K 
[IMG]49646424-photos-polaroides-accrochees-a-un-fil-a-lingeft160_medium.jpg2016-09-30 08:42 128K 
[IMG]49646433-junge-frau-vor-tafelft160_medium.jpg2016-09-30 08:44 147K 
[IMG]49646438-junge-frau-vor-tafelft160_medium.jpg2016-09-30 08:39 139K 
[IMG]49646440-red-apple-fruitft160_medium.jpg2016-09-30 08:42 167K 
[IMG]49646447-junge-frau-vor-tafelft160_medium.jpg2016-09-30 08:43 145K 
[IMG]49646450-junge-frau-vor-tafelft160_medium.jpg2016-09-30 08:43 137K 
[IMG]49646452-junge-frau-vor-tafelft160_medium.jpg2016-09-30 08:41 134K 
[IMG]49646454-graupenft160_medium.jpg2016-09-30 08:44 158K 
[IMG]49646457-junge-frau-vor-tafelft160_medium.jpg2016-09-30 08:40 133K 
[IMG]49646459-fireworksft160_medium.jpg2016-09-30 08:44 182K 
[IMG]49646463-junge-frau-vor-tafelft160_medium.jpg2016-09-30 08:42 148K 
[IMG]49646469-junge-frau-vor-tafelft160_medium.jpg2016-09-30 08:44 143K 
[IMG]49646472-junge-frau-vor-tafelft160_medium.jpg2016-09-30 08:41 146K 
[IMG]49646477-junge-frau-vor-tafelft160_medium.jpg2016-09-30 08:39 154K 
[IMG]49646480-junge-frau-vor-tafelft160_medium.jpg2016-09-30 08:42 161K 
[IMG]49646483-junge-frau-vor-tafelft160_medium.jpg2016-09-30 08:40 155K 
[IMG]49646484-junge-frau-vor-tafelft160_medium.jpg2016-09-30 08:43 157K 
[IMG]49646488ft160_medium.jpg2016-09-30 08:44 156K 
[IMG]49646489-doomft160_medium.jpg2016-09-30 08:41 181K 
[IMG]49646490-junge-frau-vor-tafelft160_medium.jpg2016-09-30 08:44 157K 
[IMG]49646495-junge-frau-vor-tafelft160_medium.jpg2016-09-30 08:43 150K 
[IMG]49646497-junge-frau-vor-tafelft160_medium.jpg2016-09-30 08:40 152K 
[IMG]49646504-junge-frau-vor-tafelft160_medium.jpg2016-09-30 08:40 148K 
[IMG]49646507-junge-frau-vor-tafelft160_medium.jpg2016-09-30 08:44 151K 
[IMG]49646509-schildhalterft160_medium.jpg2016-09-30 08:40 114K 
[IMG]49646512ft160_medium.jpg2016-09-30 08:41 136K 
[IMG]49646516-aerztinft160_medium.jpg2016-09-30 08:40 149K 
[IMG]49646517-fighting-roosterft160_medium.jpg2016-09-30 08:40 161K 
[IMG]49646518-aerztinft160_medium.jpg2016-09-30 08:43 157K 
[IMG]49646519-cochon-rose-economie-gain-gagner-argentft160_medium.jpg2016-09-30 08:44 129K 
[IMG]49646523-aerztinft160_medium.jpg2016-09-30 08:39 157K 
[IMG]49646526-aerztinft160_medium.jpg2016-09-30 08:41 157K 
[IMG]49646529-graupenft160_medium.jpg2016-09-30 08:44 180K 
[IMG]49646531-aerztinft160_medium.jpg2016-09-30 08:41 154K 
[IMG]49646535-book-of-knowledge-ft160_medium.jpg2016-09-30 08:41 140K 
[IMG]49646536ft160_medium.jpg2016-09-30 08:42 153K 
[IMG]49646537-aerztinft160_medium.jpg2016-09-30 08:41 158K 
[IMG]49646541-aerztinft160_medium.jpg2016-09-30 08:44 153K 
[IMG]49646543-aerztinft160_medium.jpg2016-09-30 08:44 153K 
[IMG]49646545ft160_medium.jpg2016-09-30 08:43 148K 

Apache/2.4.12 (Ubuntu) Server at pics.mein-artikel-design.de Port 443